Year,Month,Day,Hour,Minute,Value (Times are PST for temperature in C)
2010,08,10,00,00,14.20
2010,08,10,00,01,14.20
2010,08,10,00,02,14.20
2010,08,10,00,03,14.20
2010,08,10,00,04,14.20
2010,08,10,00,05,14.20
2010,08,10,00,06,14.10
2010,08,10,00,07,14.10
2010,08,10,00,08,14.10
2010,08,10,00,09,14.10
2010,08,10,00,10,14.10
2010,08,10,00,11,14.00
2010,08,10,00,12,14.00
2010,08,10,00,13,14.00
2010,08,10,00,14,14.00
2010,08,10,00,15,13.90
2010,08,10,00,16,13.90
2010,08,10,00,17,13.90
2010,08,10,00,18,13.90
2010,08,10,00,19,13.90
2010,08,10,00,20,13.90
2010,08,10,00,21,13.90
2010,08,10,00,22,13.90
2010,08,10,00,23,13.90
2010,08,10,00,24,13.90
2010,08,10,00,25,13.90
2010,08,10,00,26,13.90
2010,08,10,00,27,13.90
2010,08,10,00,28,13.90
2010,08,10,00,29,13.90
2010,08,10,00,30,13.90
2010,08,10,00,31,13.80
2010,08,10,00,32,13.80
2010,08,10,00,33,13.80
2010,08,10,00,34,13.90
2010,08,10,00,35,13.90
2010,08,10,00,36,13.80
2010,08,10,00,37,13.80
2010,08,10,00,38,13.80
2010,08,10,00,39,13.80
2010,08,10,00,40,13.80
2010,08,10,00,41,13.80
2010,08,10,00,42,13.80
2010,08,10,00,43,13.80
2010,08,10,00,44,13.80
2010,08,10,00,45,13.80
2010,08,10,00,46,13.80
2010,08,10,00,47,13.80
2010,08,10,00,48,13.80
2010,08,10,00,49,13.70
2010,08,10,00,50,13.70
2010,08,10,00,51,13.70
2010,08,10,00,52,13.70
2010,08,10,00,53,13.70
2010,08,10,00,54,13.70
2010,08,10,00,55,13.70
2010,08,10,00,56,13.70
2010,08,10,00,57,13.70
2010,08,10,00,58,13.70
2010,08,10,00,59,13.70
2010,08,10,01,00,13.70
2010,08,10,01,01,13.70
2010,08,10,01,02,13.70
2010,08,10,01,03,13.80
2010,08,10,01,04,13.70
2010,08,10,01,05,13.70
2010,08,10,01,06,13.70
2010,08,10,01,07,13.70
2010,08,10,01,08,13.70
2010,08,10,01,09,13.70
2010,08,10,01,10,13.70
2010,08,10,01,11,13.70
2010,08,10,01,12,13.70
2010,08,10,01,13,13.70
2010,08,10,01,14,13.70
2010,08,10,01,15,13.70
2010,08,10,01,16,13.70
2010,08,10,01,17,13.70
2010,08,10,01,18,13.70
2010,08,10,01,19,13.70
2010,08,10,01,20,13.70
2010,08,10,01,21,13.70
2010,08,10,01,22,13.70
2010,08,10,01,23,13.70
2010,08,10,01,24,13.70
2010,08,10,01,25,13.70
2010,08,10,01,26,13.70
2010,08,10,01,27,13.70
2010,08,10,01,28,13.70
2010,08,10,01,29,13.70
2010,08,10,01,30,13.70
2010,08,10,01,31,13.70
2010,08,10,01,32,13.70
2010,08,10,01,33,13.70
2010,08,10,01,34,13.70
2010,08,10,01,35,13.60
2010,08,10,01,36,13.60
2010,08,10,01,37,13.60
2010,08,10,01,38,13.50
2010,08,10,01,39,13.40
2010,08,10,01,40,13.30
2010,08,10,01,41,13.30
2010,08,10,01,42,13.30
2010,08,10,01,43,13.20
2010,08,10,01,44,13.20
2010,08,10,01,45,13.20
2010,08,10,01,46,13.10
2010,08,10,01,47,13.10
2010,08,10,01,48,13.10
2010,08,10,01,49,13.10
2010,08,10,01,50,13.00
2010,08,10,01,51,13.00
2010,08,10,01,52,13.10
2010,08,10,01,53,13.10
2010,08,10,01,54,13.10
2010,08,10,01,55,13.10
2010,08,10,01,56,13.10
2010,08,10,01,57,13.10
2010,08,10,01,58,13.10
2010,08,10,01,59,13.10
2010,08,10,02,00,13.10
2010,08,10,02,01,13.00
2010,08,10,02,02,13.00
2010,08,10,02,03,13.00
2010,08,10,02,04,13.00
2010,08,10,02,05,13.00
2010,08,10,02,06,13.10
2010,08,10,02,07,13.10
2010,08,10,02,08,13.20
2010,08,10,02,09,13.20
2010,08,10,02,10,13.20
2010,08,10,02,11,13.20
2010,08,10,02,12,13.30
2010,08,10,02,13,13.30
2010,08,10,02,14,13.30
2010,08,10,02,15,13.30
2010,08,10,02,16,13.20
2010,08,10,02,17,13.20
2010,08,10,02,18,13.20
2010,08,10,02,19,13.20
2010,08,10,02,20,13.20
2010,08,10,02,21,13.20
2010,08,10,02,22,13.20
2010,08,10,02,23,13.20
2010,08,10,02,24,13.20
2010,08,10,02,25,13.20
2010,08,10,02,26,13.20
2010,08,10,02,27,13.20
2010,08,10,02,28,13.20
2010,08,10,02,29,13.20
2010,08,10,02,30,13.20
2010,08,10,02,31,13.20
2010,08,10,02,32,13.20
2010,08,10,02,33,13.20
2010,08,10,02,34,13.20
2010,08,10,02,35,13.20
2010,08,10,02,36,13.20
2010,08,10,02,37,13.20
2010,08,10,02,38,13.10
2010,08,10,02,39,13.10
2010,08,10,02,40,13.10
2010,08,10,02,41,13.10
2010,08,10,02,42,13.10
2010,08,10,02,43,13.10
2010,08,10,02,44,13.10
2010,08,10,02,45,13.10
2010,08,10,02,46,13.10
2010,08,10,02,47,13.10
2010,08,10,02,48,13.20
2010,08,10,02,49,13.20
2010,08,10,02,50,13.20
2010,08,10,02,51,13.20
2010,08,10,02,52,13.20
2010,08,10,02,53,13.20
2010,08,10,02,54,13.20
2010,08,10,02,55,13.20
2010,08,10,02,56,13.20
2010,08,10,02,57,13.20
2010,08,10,02,58,13.20
2010,08,10,02,59,13.20
2010,08,10,03,00,13.20
2010,08,10,03,01,13.20
2010,08,10,03,02,13.20
2010,08,10,03,03,13.20
2010,08,10,03,04,13.20
2010,08,10,03,05,13.20
2010,08,10,03,06,13.20
2010,08,10,03,07,13.20
2010,08,10,03,08,13.20
2010,08,10,03,09,13.30
2010,08,10,03,10,13.30
2010,08,10,03,11,13.30
2010,08,10,03,12,13.30
2010,08,10,03,13,13.30
2010,08,10,03,14,13.30
2010,08,10,03,15,13.30
2010,08,10,03,16,13.30
2010,08,10,03,17,13.30
2010,08,10,03,18,13.30
2010,08,10,03,19,13.40
2010,08,10,03,20,13.40
2010,08,10,03,21,13.40
2010,08,10,03,22,13.40
2010,08,10,03,23,13.40
2010,08,10,03,24,13.40
2010,08,10,03,25,13.50
2010,08,10,03,26,13.50
2010,08,10,03,27,13.60
2010,08,10,03,28,13.60
2010,08,10,03,29,13.60
2010,08,10,03,30,13.60
2010,08,10,03,31,13.70
2010,08,10,03,32,13.70
2010,08,10,03,33,13.70
2010,08,10,03,34,13.70
2010,08,10,03,35,13.70
2010,08,10,03,36,13.70
2010,08,10,03,37,13.80
2010,08,10,03,38,13.80
2010,08,10,03,39,13.80
2010,08,10,03,40,13.80
2010,08,10,03,41,13.80
2010,08,10,03,42,13.80
2010,08,10,03,43,13.90
2010,08,10,03,44,13.90
2010,08,10,03,45,13.90
2010,08,10,03,46,13.90
2010,08,10,03,47,13.90
2010,08,10,03,48,13.90
2010,08,10,03,49,13.90
2010,08,10,03,50,13.90
2010,08,10,03,51,13.90
2010,08,10,03,52,14.00
2010,08,10,03,53,14.00
2010,08,10,03,54,14.00
2010,08,10,03,55,14.00
2010,08,10,03,56,14.00
2010,08,10,03,57,14.10
2010,08,10,03,58,14.10
2010,08,10,03,59,14.10
2010,08,10,04,00,14.10
2010,08,10,04,01,14.10
2010,08,10,04,02,14.10
2010,08,10,04,03,14.10
2010,08,10,04,04,14.20
2010,08,10,04,05,14.20
2010,08,10,04,06,14.20
2010,08,10,04,07,14.20
2010,08,10,04,08,14.20
2010,08,10,04,09,14.20
2010,08,10,04,10,14.20
2010,08,10,04,11,14.20
2010,08,10,04,12,14.30
2010,08,10,04,13,14.30
2010,08,10,04,14,14.30
2010,08,10,04,15,14.30
2010,08,10,04,16,14.30
2010,08,10,04,17,14.30
2010,08,10,04,18,14.30
2010,08,10,04,19,14.30
2010,08,10,04,20,14.30
2010,08,10,04,21,14.30
2010,08,10,04,22,14.30
2010,08,10,04,23,14.30
2010,08,10,04,24,14.30
2010,08,10,04,25,14.30
2010,08,10,04,26,14.30
2010,08,10,04,27,14.30
2010,08,10,04,28,14.30
2010,08,10,04,29,14.30
2010,08,10,04,30,14.40
2010,08,10,04,31,14.40
2010,08,10,04,32,14.40
2010,08,10,04,33,14.40
2010,08,10,04,34,14.40
2010,08,10,04,35,14.40
2010,08,10,04,36,14.40
2010,08,10,04,37,14.40
2010,08,10,04,38,14.40
2010,08,10,04,39,14.50
2010,08,10,04,40,14.50
2010,08,10,04,41,14.50
2010,08,10,04,42,14.50
2010,08,10,04,43,14.50
2010,08,10,04,44,14.60
2010,08,10,04,45,14.60
2010,08,10,04,46,14.60
2010,08,10,04,47,14.60
2010,08,10,04,48,14.60
2010,08,10,04,49,14.60
2010,08,10,04,50,14.60
2010,08,10,04,51,14.60
2010,08,10,04,52,14.60
2010,08,10,04,53,14.60
2010,08,10,04,54,14.60
2010,08,10,04,55,14.70
2010,08,10,04,56,14.70
2010,08,10,04,57,14.70
2010,08,10,04,58,14.70
2010,08,10,04,59,14.70
2010,08,10,05,00,14.70
2010,08,10,05,01,14.70
2010,08,10,05,02,14.70
2010,08,10,05,03,14.70
2010,08,10,05,04,14.70
2010,08,10,05,05,14.70
2010,08,10,05,06,14.70
2010,08,10,05,07,14.70
2010,08,10,05,08,14.70
2010,08,10,05,09,14.70
2010,08,10,05,10,14.70
2010,08,10,05,11,14.70
2010,08,10,05,12,14.70
2010,08,10,05,13,14.70
2010,08,10,05,14,14.60
2010,08,10,05,15,14.60
2010,08,10,05,16,14.60
2010,08,10,05,17,14.60
2010,08,10,05,18,14.60
2010,08,10,05,19,14.60
2010,08,10,05,20,14.60
2010,08,10,05,21,14.60
2010,08,10,05,22,14.60
2010,08,10,05,23,14.60
2010,08,10,05,24,14.60
2010,08,10,05,25,14.60
2010,08,10,05,26,14.60
2010,08,10,05,27,14.60
2010,08,10,05,28,14.60
2010,08,10,05,29,14.60
2010,08,10,05,30,14.60
2010,08,10,05,31,14.60
2010,08,10,05,32,14.60
2010,08,10,05,33,14.60
2010,08,10,05,34,14.60
2010,08,10,05,35,14.60
2010,08,10,05,36,14.60
2010,08,10,05,37,14.60
2010,08,10,05,38,14.60
2010,08,10,05,39,14.60
2010,08,10,05,40,14.60
2010,08,10,05,41,14.60
2010,08,10,05,42,14.60
2010,08,10,05,43,14.60
2010,08,10,05,44,14.60
2010,08,10,05,45,14.60
2010,08,10,05,46,14.60
2010,08,10,07,28,14.80
2010,08,10,07,29,14.80
2010,08,10,07,30,14.80
2010,08,10,07,31,14.80
2010,08,10,07,32,14.80
2010,08,10,07,33,14.80
2010,08,10,07,34,14.80
2010,08,10,07,35,14.80
2010,08,10,07,36,14.80
2010,08,10,07,37,14.80
2010,08,10,07,38,14.80
2010,08,10,07,39,14.90
2010,08,10,07,40,14.90
2010,08,10,07,41,14.90
2010,08,10,07,42,14.90
2010,08,10,07,43,14.90
2010,08,10,07,44,14.90
2010,08,10,07,45,14.90
2010,08,10,07,46,14.90
2010,08,10,07,47,14.90
2010,08,10,07,48,14.90
2010,08,10,07,49,14.90
2010,08,10,07,50,14.90
2010,08,10,07,51,14.90
2010,08,10,07,52,14.90
2010,08,10,07,53,14.90
2010,08,10,07,54,14.90
2010,08,10,07,55,14.90
2010,08,10,07,56,14.90
2010,08,10,07,57,14.90
2010,08,10,07,58,14.90
2010,08,10,07,59,14.90
2010,08,10,08,00,14.90
2010,08,10,08,01,14.90
2010,08,10,08,02,14.90
2010,08,10,08,03,14.80
2010,08,10,08,04,14.80
2010,08,10,08,05,14.80
2010,08,10,08,06,14.80
2010,08,10,08,07,14.80
2010,08,10,08,08,14.80
2010,08,10,08,09,14.80
2010,08,10,08,10,14.80
2010,08,10,08,11,14.80
2010,08,10,08,12,14.80
2010,08,10,08,13,14.80
2010,08,10,08,14,14.80
2010,08,10,08,15,14.80
2010,08,10,08,16,14.80
2010,08,10,08,17,14.80
2010,08,10,08,18,14.80
2010,08,10,08,19,14.80
2010,08,10,08,20,14.80
2010,08,10,08,21,14.80
2010,08,10,08,22,14.80
2010,08,10,08,23,14.80
2010,08,10,08,24,14.80
2010,08,10,08,25,14.80
2010,08,10,08,26,14.80
2010,08,10,08,27,14.80
2010,08,10,08,28,14.80
2010,08,10,08,29,14.80
2010,08,10,08,30,14.80
2010,08,10,08,31,14.80
2010,08,10,08,32,14.80
2010,08,10,08,33,14.80
2010,08,10,08,34,14.80
2010,08,10,08,35,14.80
2010,08,10,08,36,14.80
2010,08,10,08,37,14.80
2010,08,10,08,38,14.80
2010,08,10,08,39,14.80
2010,08,10,08,40,14.80
2010,08,10,08,41,14.80
2010,08,10,08,42,14.80
2010,08,10,08,43,14.80
2010,08,10,08,44,14.80
2010,08,10,08,45,14.80
2010,08,10,08,46,14.80
2010,08,10,08,47,14.80
2010,08,10,08,48,14.80
2010,08,10,08,49,14.80
2010,08,10,08,50,14.80
2010,08,10,08,51,14.80
2010,08,10,08,52,14.80
2010,08,10,08,53,14.80
2010,08,10,08,54,14.80
2010,08,10,08,55,14.80
2010,08,10,08,56,14.80
2010,08,10,08,57,14.80
2010,08,10,08,58,14.80
2010,08,10,08,59,14.80
2010,08,10,09,00,14.80
2010,08,10,09,01,14.80
2010,08,10,09,02,14.80
2010,08,10,09,03,14.80
2010,08,10,09,04,14.80
2010,08,10,09,05,14.80
2010,08,10,09,06,14.80
2010,08,10,09,07,14.80
2010,08,10,09,08,14.80
2010,08,10,09,09,14.80
2010,08,10,09,10,14.80
2010,08,10,09,11,14.80
2010,08,10,09,12,14.80
2010,08,10,09,13,14.80
2010,08,10,09,14,14.80
2010,08,10,09,15,14.80
2010,08,10,09,16,14.80
2010,08,10,09,17,14.80
2010,08,10,09,18,14.80
2010,08,10,09,19,14.90
2010,08,10,09,20,14.90
2010,08,10,09,21,14.90
2010,08,10,09,22,15.00
2010,08,10,09,23,15.00
2010,08,10,09,24,15.00
2010,08,10,09,25,15.00
2010,08,10,09,26,15.00
2010,08,10,09,27,15.00
2010,08,10,09,28,15.00
2010,08,10,09,29,15.00
2010,08,10,09,30,15.00
2010,08,10,09,31,15.00
2010,08,10,09,32,15.00
2010,08,10,09,33,15.00
2010,08,10,09,34,15.00
2010,08,10,09,35,15.00
2010,08,10,09,36,15.00
2010,08,10,09,37,15.00
2010,08,10,09,38,15.00
2010,08,10,09,39,15.00
2010,08,10,09,40,15.00
2010,08,10,09,41,15.00
2010,08,10,09,42,15.00
2010,08,10,09,43,15.00
2010,08,10,09,44,15.00
2010,08,10,09,45,15.00
2010,08,10,09,46,15.00
2010,08,10,09,47,15.00
2010,08,10,09,48,15.00
2010,08,10,09,49,15.00
2010,08,10,09,50,15.00
2010,08,10,09,51,15.00
2010,08,10,09,52,15.00
2010,08,10,09,53,15.00
2010,08,10,09,54,15.00
2010,08,10,09,55,15.00
2010,08,10,09,56,15.00
2010,08,10,09,57,15.00
2010,08,10,09,58,15.00
2010,08,10,09,59,15.00
2010,08,10,10,00,15.00
2010,08,10,10,01,15.00
2010,08,10,10,02,15.00
2010,08,10,10,03,15.00
2010,08,10,10,04,15.00
2010,08,10,10,05,15.00
2010,08,10,10,06,15.00
2010,08,10,10,07,15.00
2010,08,10,10,08,15.00
2010,08,10,10,09,15.00
2010,08,10,10,10,15.00
2010,08,10,10,11,15.00
2010,08,10,10,12,15.00
2010,08,10,10,13,15.00
2010,08,10,10,14,15.00
2010,08,10,10,15,15.00
2010,08,10,10,16,15.00
2010,08,10,10,17,15.00
2010,08,10,10,18,15.00
2010,08,10,10,19,15.10
2010,08,10,10,20,15.20
2010,08,10,10,21,15.20
2010,08,10,10,22,15.20
2010,08,10,10,23,15.20
2010,08,10,10,24,15.20
2010,08,10,10,25,15.20
2010,08,10,10,26,15.30
2010,08,10,10,27,15.30
2010,08,10,10,28,15.40
2010,08,10,10,29,15.40
2010,08,10,10,30,15.40
2010,08,10,10,31,15.40
2010,08,10,10,32,15.50
2010,08,10,10,33,15.50
2010,08,10,10,34,15.50
2010,08,10,10,35,15.50
2010,08,10,10,36,15.60
2010,08,10,10,37,15.60
2010,08,10,10,38,15.60
2010,08,10,10,39,15.70
2010,08,10,10,40,15.70
2010,08,10,10,41,15.70
2010,08,10,10,42,15.70
2010,08,10,10,43,15.70
2010,08,10,10,44,15.70
2010,08,10,10,45,15.70
2010,08,10,10,46,15.70
2010,08,10,10,47,15.70
2010,08,10,10,48,15.80
2010,08,10,10,49,15.80
2010,08,10,10,50,15.80
2010,08,10,10,51,15.80
2010,08,10,10,52,15.80
2010,08,10,10,53,15.80
2010,08,10,10,54,15.80
2010,08,10,10,55,15.80
2010,08,10,10,56,15.70
2010,08,10,10,57,15.70
2010,08,10,10,58,15.60
2010,08,10,10,59,15.60
2010,08,10,11,00,15.70
2010,08,10,11,01,15.70
2010,08,10,11,02,15.70
2010,08,10,11,03,15.80
2010,08,10,11,04,15.80
2010,08,10,11,05,15.90
2010,08,10,11,06,16.00
2010,08,10,11,07,16.20
2010,08,10,11,08,16.20
2010,08,10,11,09,16.20
2010,08,10,11,10,16.30
2010,08,10,11,11,16.30
2010,08,10,11,12,16.30
2010,08,10,11,13,16.30
2010,08,10,11,14,16.30
2010,08,10,11,15,16.30
2010,08,10,11,16,16.40
2010,08,10,11,17,16.40
2010,08,10,11,18,16.50
2010,08,10,11,19,16.40
2010,08,10,11,20,16.40
2010,08,10,11,21,16.30
2010,08,10,11,22,16.30
2010,08,10,11,23,16.30
2010,08,10,11,24,16.30
2010,08,10,11,25,16.20
2010,08,10,11,26,16.30
2010,08,10,11,27,16.30
2010,08,10,11,28,16.30
2010,08,10,11,29,16.30
2010,08,10,11,30,16.30
2010,08,10,11,31,16.30
2010,08,10,11,32,16.30
2010,08,10,11,33,16.30
2010,08,10,11,34,16.30
2010,08,10,11,35,16.50
2010,08,10,11,36,16.50
2010,08,10,11,37,16.60
2010,08,10,11,38,16.60
2010,08,10,11,39,16.60
2010,08,10,11,40,16.50
2010,08,10,11,41,16.40
2010,08,10,11,42,16.30
2010,08,10,11,43,16.30
2010,08,10,11,44,16.40
2010,08,10,11,45,16.40
2010,08,10,11,46,16.40
2010,08,10,11,47,16.40
2010,08,10,11,48,16.30
2010,08,10,11,49,16.30
2010,08,10,11,50,16.30
2010,08,10,11,51,16.30
2010,08,10,11,52,16.40
2010,08,10,11,53,16.40
2010,08,10,11,54,16.40
2010,08,10,11,55,16.40
2010,08,10,11,56,16.50
2010,08,10,11,57,16.50
2010,08,10,11,58,16.50
2010,08,10,11,59,16.50
2010,08,10,12,00,16.50
2010,08,10,12,01,16.50
2010,08,10,12,02,16.60
2010,08,10,12,03,16.70
2010,08,10,12,04,16.70
2010,08,10,12,05,16.70
2010,08,10,12,06,16.70
2010,08,10,12,07,16.80
2010,08,10,12,08,16.80
2010,08,10,12,09,16.80
2010,08,10,12,10,16.80
2010,08,10,12,11,16.80
2010,08,10,12,12,16.80
2010,08,10,12,13,16.70
2010,08,10,12,14,16.70
2010,08,10,12,15,16.60
2010,08,10,12,16,16.60
2010,08,10,12,17,16.60
2010,08,10,12,18,16.60
2010,08,10,12,19,16.60
2010,08,10,12,20,16.60
2010,08,10,12,21,16.60
2010,08,10,12,22,16.70
2010,08,10,12,23,16.80
2010,08,10,12,24,16.80
2010,08,10,12,25,16.80
2010,08,10,12,26,16.80
2010,08,10,12,27,16.70
2010,08,10,12,28,16.80
2010,08,10,12,29,16.80
2010,08,10,12,30,16.80
2010,08,10,12,31,16.90
2010,08,10,12,32,16.90
2010,08,10,12,33,16.90
2010,08,10,12,34,16.90
2010,08,10,12,35,16.90
2010,08,10,12,36,16.90
2010,08,10,12,37,16.90
2010,08,10,12,38,16.90
2010,08,10,12,39,16.90
2010,08,10,12,40,16.80
2010,08,10,12,41,16.80
2010,08,10,12,42,16.80
2010,08,10,12,43,16.80
2010,08,10,12,44,16.80
2010,08,10,12,45,16.90
2010,08,10,12,46,17.00
2010,08,10,12,47,17.00
2010,08,10,12,48,17.00
2010,08,10,12,49,17.00
2010,08,10,12,50,17.10
2010,08,10,12,51,17.20
2010,08,10,12,52,17.20
2010,08,10,12,53,17.20
2010,08,10,12,54,17.20
2010,08,10,12,55,17.20
2010,08,10,12,56,17.20
2010,08,10,12,57,17.10
2010,08,10,12,58,17.10
2010,08,10,12,59,17.00
2010,08,10,13,00,16.90
2010,08,10,13,01,16.90
2010,08,10,13,02,16.90
2010,08,10,13,03,16.90
2010,08,10,13,04,16.90
2010,08,10,13,05,17.00
2010,08,10,13,06,16.90
2010,08,10,13,07,16.90
2010,08,10,13,08,17.00
2010,08,10,13,09,17.10
2010,08,10,13,10,17.20
2010,08,10,13,11,17.30
2010,08,10,13,12,17.30
2010,08,10,13,13,17.30
2010,08,10,13,14,17.30
2010,08,10,13,15,17.20
2010,08,10,13,16,17.20
2010,08,10,13,17,17.10
2010,08,10,13,18,17.10
2010,08,10,13,19,17.10
2010,08,10,13,20,17.10
2010,08,10,13,21,17.10
2010,08,10,13,22,17.10
2010,08,10,13,23,17.20
2010,08,10,13,24,17.20
2010,08,10,13,25,17.30
2010,08,10,13,26,17.30
2010,08,10,13,27,17.30
2010,08,10,13,28,17.30
2010,08,10,13,29,17.30
2010,08,10,13,30,17.20
2010,08,10,13,31,17.20
2010,08,10,13,32,17.20
2010,08,10,13,33,17.20
2010,08,10,13,34,17.30
2010,08,10,13,35,17.40
2010,08,10,13,36,17.50
2010,08,10,13,37,17.60
2010,08,10,13,38,17.60
2010,08,10,13,39,17.70
2010,08,10,13,40,17.70
2010,08,10,13,41,17.70
2010,08,10,13,42,17.60
2010,08,10,13,43,17.60
2010,08,10,13,44,17.60
2010,08,10,13,45,17.50
2010,08,10,13,46,17.50
2010,08,10,13,47,17.50
2010,08,10,13,48,17.50
2010,08,10,13,49,17.60
2010,08,10,13,50,17.60
2010,08,10,13,51,17.70
2010,08,10,13,52,17.80
2010,08,10,13,53,17.90
2010,08,10,13,54,17.90
2010,08,10,13,55,18.00
2010,08,10,13,56,18.10
2010,08,10,13,57,18.10
2010,08,10,13,58,18.10
2010,08,10,13,59,18.20
2010,08,10,14,00,18.20
2010,08,10,14,01,18.20
2010,08,10,14,02,18.10
2010,08,10,14,03,18.00
2010,08,10,14,04,18.00
2010,08,10,14,05,17.90
2010,08,10,14,06,17.90
2010,08,10,14,07,17.80
2010,08,10,14,08,17.90
2010,08,10,14,09,17.90
2010,08,10,14,10,17.90
2010,08,10,14,11,18.00
2010,08,10,14,12,18.00
2010,08,10,14,13,18.10
2010,08,10,14,14,18.00
2010,08,10,14,15,18.10
2010,08,10,14,16,18.20
2010,08,10,14,17,18.30
2010,08,10,14,18,18.30
2010,08,10,14,19,18.20
2010,08,10,14,20,18.20
2010,08,10,14,21,18.20
2010,08,10,14,22,18.20
2010,08,10,14,23,18.10
2010,08,10,14,24,18.10
2010,08,10,14,25,18.00
2010,08,10,14,26,18.10
2010,08,10,14,27,18.10
2010,08,10,14,28,18.10
2010,08,10,14,29,18.20
2010,08,10,14,30,18.20
2010,08,10,14,31,18.30
2010,08,10,14,32,18.30
2010,08,10,14,33,18.40
2010,08,10,14,34,18.40
2010,08,10,14,35,18.40
2010,08,10,14,36,18.40
2010,08,10,14,37,18.30
2010,08,10,14,38,18.30
2010,08,10,14,39,18.30
2010,08,10,14,40,18.30
2010,08,10,14,41,18.30
2010,08,10,14,42,18.30
2010,08,10,14,43,18.20
2010,08,10,14,44,18.20
2010,08,10,14,45,18.20
2010,08,10,14,46,18.20
2010,08,10,14,47,18.30
2010,08,10,14,48,18.30
2010,08,10,14,49,18.30
2010,08,10,14,50,18.40
2010,08,10,14,51,18.60
2010,08,10,14,52,18.70
2010,08,10,14,53,18.70
2010,08,10,14,54,18.70
2010,08,10,14,55,18.70
2010,08,10,14,56,18.70
2010,08,10,14,57,18.60
2010,08,10,14,58,18.50
2010,08,10,14,59,18.40
2010,08,10,15,00,18.30
2010,08,10,15,01,18.30
2010,08,10,15,02,18.20
2010,08,10,15,03,18.20
2010,08,10,15,04,18.20
2010,08,10,15,05,18.20
2010,08,10,15,06,18.30
2010,08,10,15,07,18.30
2010,08,10,15,08,18.30
2010,08,10,15,09,18.40
2010,08,10,15,10,18.40
2010,08,10,15,11,18.40
2010,08,10,15,12,18.40
2010,08,10,15,13,18.40
2010,08,10,15,14,18.40
2010,08,10,15,15,18.40
2010,08,10,15,16,18.50
2010,08,10,15,17,18.50
2010,08,10,15,18,18.60
2010,08,10,15,19,18.60
2010,08,10,15,20,18.70
2010,08,10,15,21,18.70
2010,08,10,15,22,18.70
2010,08,10,15,23,18.70
2010,08,10,15,24,18.80
2010,08,10,15,25,18.80
2010,08,10,15,26,18.80
2010,08,10,15,27,18.80
2010,08,10,15,28,18.90
2010,08,10,15,29,18.90
2010,08,10,15,30,19.00
2010,08,10,15,31,19.00
2010,08,10,15,32,19.00
2010,08,10,15,33,18.90
2010,08,10,15,34,18.90
2010,08,10,15,35,18.90
2010,08,10,15,36,18.90
2010,08,10,15,37,18.80
2010,08,10,15,38,18.80
2010,08,10,15,39,18.90
2010,08,10,15,40,18.90
2010,08,10,15,41,18.80
2010,08,10,15,42,18.70
2010,08,10,15,43,18.70
2010,08,10,15,44,18.60
2010,08,10,15,45,18.60
2010,08,10,15,46,18.70
2010,08,10,15,47,18.70
2010,08,10,15,48,18.70
2010,08,10,15,49,18.70
2010,08,10,15,50,18.80
2010,08,10,15,51,18.80
2010,08,10,15,52,18.80
2010,08,10,15,53,18.80
2010,08,10,15,54,18.90
2010,08,10,15,55,18.90
2010,08,10,15,56,18.80
2010,08,10,15,57,18.80
2010,08,10,15,58,18.70
2010,08,10,15,59,18.70
2010,08,10,16,00,18.70
2010,08,10,16,01,18.70
2010,08,10,16,02,18.70
2010,08,10,16,03,18.70
2010,08,10,16,04,18.70
2010,08,10,16,05,18.70
2010,08,10,16,06,18.70
2010,08,10,16,07,18.60
2010,08,10,16,08,18.60
2010,08,10,16,09,18.60
2010,08,10,16,10,18.60
2010,08,10,16,11,18.60
2010,08,10,16,12,18.60
2010,08,10,16,13,18.60
2010,08,10,16,14,18.60
2010,08,10,16,15,18.60
2010,08,10,16,16,18.60
2010,08,10,16,17,18.60
2010,08,10,16,18,18.70
2010,08,10,16,19,18.70
2010,08,10,16,20,18.70
2010,08,10,16,21,18.70
2010,08,10,16,22,18.70
2010,08,10,16,23,18.70
2010,08,10,16,24,18.70
2010,08,10,16,25,18.70
2010,08,10,16,26,18.70
2010,08,10,16,27,18.70
2010,08,10,16,28,18.70
2010,08,10,16,29,18.70
2010,08,10,16,30,18.70
2010,08,10,16,31,18.70
2010,08,10,16,32,18.80
2010,08,10,16,33,18.70
2010,08,10,16,34,18.70
2010,08,10,16,35,18.70
2010,08,10,16,36,18.60
2010,08,10,16,37,18.60
2010,08,10,16,38,18.60
2010,08,10,16,39,18.60
2010,08,10,16,40,18.60
2010,08,10,16,41,18.60
2010,08,10,16,42,18.60
2010,08,10,16,43,18.60
2010,08,10,16,44,18.70
2010,08,10,16,45,18.70
2010,08,10,16,46,18.70
2010,08,10,16,47,18.80
2010,08,10,16,48,18.80
2010,08,10,16,49,18.80
2010,08,10,16,50,18.70
2010,08,10,16,51,18.70
2010,08,10,16,52,18.70
2010,08,10,16,53,18.70
2010,08,10,16,54,18.70
2010,08,10,16,55,18.70
2010,08,10,16,56,18.70
2010,08,10,16,57,18.70
2010,08,10,16,58,18.70
2010,08,10,16,59,18.60
2010,08,10,17,00,18.60
2010,08,10,17,01,18.60
2010,08,10,17,02,18.50
2010,08,10,17,03,18.50
2010,08,10,17,04,18.50
2010,08,10,17,05,18.50
2010,08,10,17,06,18.60
2010,08,10,17,07,18.60
2010,08,10,17,08,18.60
2010,08,10,17,09,18.70
2010,08,10,17,10,18.70
2010,08,10,17,11,18.70
2010,08,10,17,12,18.80
2010,08,10,17,13,18.80
2010,08,10,17,14,18.90
2010,08,10,17,15,18.90
2010,08,10,17,16,19.00
2010,08,10,17,17,19.00
2010,08,10,17,18,19.00
2010,08,10,17,19,18.90
2010,08,10,17,20,18.90
2010,08,10,17,21,18.80
2010,08,10,17,22,18.70
2010,08,10,17,23,18.60
2010,08,10,17,24,18.50
2010,08,10,17,25,18.40
2010,08,10,17,26,18.40
2010,08,10,17,27,18.40
2010,08,10,17,28,18.40
2010,08,10,17,29,18.40
2010,08,10,17,30,18.40
2010,08,10,17,31,18.40
2010,08,10,17,32,18.30
2010,08,10,17,33,18.30
2010,08,10,17,34,18.30
2010,08,10,17,35,18.30
2010,08,10,17,36,18.30
2010,08,10,17,37,18.30
2010,08,10,17,38,18.30
2010,08,10,17,39,18.40
2010,08,10,17,40,18.40
2010,08,10,17,41,18.40
2010,08,10,17,42,18.40
2010,08,10,17,43,18.40
2010,08,10,17,44,18.50
2010,08,10,17,45,18.60
2010,08,10,17,46,18.60
2010,08,10,17,47,18.60
2010,08,10,17,48,18.60
2010,08,10,17,49,18.70
2010,08,10,17,50,18.70
2010,08,10,17,51,18.80
2010,08,10,17,52,18.80
2010,08,10,17,53,18.90
2010,08,10,17,54,18.90
2010,08,10,17,55,19.00
2010,08,10,17,56,19.10
2010,08,10,17,57,19.10
2010,08,10,17,58,19.20
2010,08,10,17,59,19.20
2010,08,10,18,00,19.20
2010,08,10,18,01,19.20
2010,08,10,18,02,19.30
2010,08,10,18,03,19.30
2010,08,10,18,04,19.30
2010,08,10,18,05,19.30
2010,08,10,18,06,19.30
2010,08,10,18,07,19.20
2010,08,10,18,08,19.20
2010,08,10,18,09,19.20
2010,08,10,18,10,19.20
2010,08,10,18,11,19.20
2010,08,10,18,12,19.20
2010,08,10,18,13,19.20
2010,08,10,18,14,19.20
2010,08,10,18,15,19.20
2010,08,10,18,16,19.30
2010,08,10,18,17,19.40
2010,08,10,18,18,19.40
2010,08,10,18,19,19.40
2010,08,10,18,20,19.50
2010,08,10,18,21,19.50
2010,08,10,18,22,19.60
2010,08,10,18,23,19.60
2010,08,10,18,24,19.60
2010,08,10,18,25,19.50
2010,08,10,18,26,19.50
2010,08,10,18,27,19.50
2010,08,10,18,28,19.50
2010,08,10,18,29,19.50
2010,08,10,18,30,19.40
2010,08,10,18,31,19.40
2010,08,10,18,32,19.30
2010,08,10,18,33,19.30
2010,08,10,18,34,19.30
2010,08,10,18,35,19.20
2010,08,10,18,36,19.20
2010,08,10,18,37,19.20
2010,08,10,18,38,19.20
2010,08,10,18,39,19.30
2010,08,10,18,40,19.30
2010,08,10,18,41,19.30
2010,08,10,18,42,19.30
2010,08,10,18,43,19.30
2010,08,10,18,44,19.30
2010,08,10,18,45,19.30
2010,08,10,18,46,19.30
2010,08,10,18,47,19.30
2010,08,10,18,48,19.30
2010,08,10,18,49,19.30
2010,08,10,18,50,19.40
2010,08,10,18,51,19.40
2010,08,10,18,52,19.40
2010,08,10,18,53,19.40
2010,08,10,18,54,19.40
2010,08,10,18,55,19.40
2010,08,10,18,56,19.40
2010,08,10,18,57,19.40
2010,08,10,18,58,19.40
2010,08,10,18,59,19.40
2010,08,10,19,00,19.40